Regional Weather Roundup
Issued by NWS

Home | Current Version | Previous Version | Text Only | Print | Product List | Glossary Off
Versions: 1 2 3 4 5 6 7 8 9 10 11 12 13 14 15 16 17 18 19 20 21 22 23 24 25 26 27 28 29 30 31 32 33 34 35 36 37 38 39 40 41 42 43 44 45 46 47 48 49 50

000
ASUS45 KABQ 030210
RWRNM
NEW MEXICO REGIONAL WEATHER ROUNDUP
NATIONAL WEATHER SERVICE ALBUQUERQUE NM
800 PM MDT THU JUL 02 2015

NOTE: "FAIR" MEANS FEW OR NO CLOUDS BELOW 12,000 FEET AGL WITH NO
       SIGNIFICANT WEATHER OR OBSTRUCTIONS TO VISION.

      THIS PRODUCT IS RELEASED AS TWO VERSIONS.  ONE VERSION NEAR
      THE TOP OF THE HOUR CONTAINING PRELIMINARY DATA FROM ALBUQUERQUE
      AND OTHER STATIONS.  A FINAL VERSION WITH ADDITIONAL DATA IS
      ISSUED ABOUT 10 MINUTES AFTER THE HOUR.

NMZ501-503-504-510>518-030300-
NORTHWEST PLATEAU/NORTHCENTRAL MOUNTAINS

CITY           SKY/WX    TMP DP  RH WIND       PRES   REMARKS
FARMINGTON     TSTM      74  58  57 S8        30.10R
LOS ALAMOS     CLOUDY    61  55  83 W5        30.33R
SANTA FE       LGT RAIN  63  57  81 N15G24    30.23F
TAOS           CLOUDY    61  48  63 SE10      30.33R
ANGEL FIRE     LGT RAIN  58  52  80 CALM      30.43R

$$
NMZ402-403-502-505>509-030300-
WESTCENTRAL MOUNTAINS/SOUTHWEST MOUNTAINS

CITY           SKY/WX    TMP DP  RH WIND       PRES   REMARKS
GALLUP         CLOUDY    76  62  62 CALM      30.13S
GRANTS         CLOUDY    63  61  93 SW5       30.22S
SILVER CITY      N/A     77  63  61 N8        30.04R

$$
NMZ407-409-411-412-030300-
SOUTHERN DESERTS

CITY           SKY/WX    TMP DP  RH WIND       PRES   REMARKS
LORDSBURG      MOCLDY    93  45  18 W14       29.92R
DEMING         CLEAR     93  49  22 NW10      29.91R
LAS CRUCES     PTCLDY    95  36  12 CALM      29.93R
HOLLOMAN AFB   CLOUDY    92  50  23 E8        29.89R
ALAMOGORDO     MOCLDY    91  48  22 E8        29.92S
T OR C         MOCLDY    92  47  21 E9        29.95R

$$
NMZ519>523-030300-
CENTRAL VALLEYS/CENTRAL HIGHLANDS

CITY           SKY/WX    TMP DP  RH WIND       PRES   REMARKS
ALBUQUERQUE    CLOUDY    75  58  55 E18       30.13R THUNDER
DOUBLE EAGLE   TSTM      72  57  60 CALM      30.13S
MORIARTY ARPT    N/A     65  60  82 W5        30.22R
CLINES CORNERS CLOUDY    67  57  70 E9        30.24F
BELEN          LGT RAIN  74  57  56 S22       30.08F
SOCORRO        HVY RAIN  67  62  84 N14G22    30.13R

$$
NMZ524>526-539-540-030300-
SOUTHCENTRAL MOUNTAINS

CITY           SKY/WX    TMP DP  RH WIND       PRES   REMARKS
RUIDOSO        CLOUDY    68  54  60 N18G28    30.26R

$$
NMZ527>531-030300-
NORTHEAST HIGHLANDS/NORTHEAST PLAINS

CITY           SKY/WX    TMP DP  RH WIND       PRES   REMARKS
LAS VEGAS      CLOUDY    66  60  81 NW8       30.27R
RATON          CLOUDY    69  61  75 N5        30.23S
CLAYTON        CLOUDY    74  62  66 N8        30.13R

$$
NMZ532>537-030300-
EASTCENTRAL PLAINS

CITY           SKY/WX    TMP DP  RH WIND       PRES   REMARKS
TUCUMCARI      CLOUDY    86  58  38 E7        30.02R
CANNON AFB     MOCLDY    78  61  56 SW5       30.06R
CLOVIS AIRPORT CLOUDY    81  61  50 S6          N/A

$$
NMZ028-029-538-030300-
SOUTHEAST PLAINS

CITY           SKY/WX    TMP DP  RH WIND       PRES   REMARKS
ROSWELL        CLOUDY    80  58  46 SE14G22   29.99R
ARTESIA        CLOUDY    82  57  42 E18G28    29.97S
CARLSBAD       MOCLDY    89  55  31 SE12      29.93R
HOBBS          CLOUDY    84  55  37 CALM      30.00S


$$



USA.gov is the U.S. government's official web portal to all federal, state and local government web resources and services.